EW1392 Weather Reports


time (UTC)temp
F
wind
direction
speed
knots
gust
knots
rain 1hr
in
rain 24hr
in
rain mn
in
humidity
%
barometer
mb
20260506204521 72 246 0.9 3.5 0.00 0.00 0.00 36 1011.2
20260506203025 73 275 0.0 4.3 0.00 0.00 0.00 37 1011.3
20260506201522 74 213 0.9 5.2 0.00 0.00 0.00 36 1011.3
20260506200023 74 77 0.0 4.3 0.00 0.00 0.00 37 1011.3
20260506194519 73 265 0.9 5.2 0.00 0.00 0.00 39 1011.2
20260506193017 74 217 0.0 7.0 0.00 0.00 0.00 37 1011.2
20260506191517 73 298 0.9 6.1 0.00 0.00 0.00 37 1011.3
20260506190016 73 333 0.0 8.7 0.00 0.00 0.00 41 1011.1
20260506184514 73 214 0.9 5.2 0.00 0.00 0.00 45 1011.2
20260506183014 73 218 0.0 4.3 0.00 0.00 0.00 47 1011.4
20260506181512 73 224 0.9 4.3 0.00 0.00 0.00 45 1011.4
20260506180010 73 239 0.9 4.3 0.00 0.00 0.00 47 1011.3
20260506174514 72 315 0.9 4.3 0.00 0.00 0.00 50 1011.3
20260506173006 71 248 0.0 4.3 0.00 0.00 0.00 50 1011.5
20260506171508 70 254 0.0 3.5 0.00 0.00 0.00 53 1011.6
20260506170104 69 279 0.0 3.5 0.00 0.00 0.00 55 1011.7
20260506164559 67 204 0.0 1.7 0.00 0.00 0.00 61 1011.8
20260506163109 66 276 0.0 2.6 0.00 0.00 0.00 63 1012.0
20260506161549 64 200 0.0 0.0 0.00 0.00 0.00 67 1012.0
20260506160044 60 200 0.0 0.0 0.00 0.00 0.00 79 1012.2
20260506154546 56 200 0.0 0.9 0.00 0.00 0.00 89 1012.2
20260506153037 51 200 0.0 0.0 0.00 0.00 0.00 94 1012.3
20260506151541 49 200 0.0 0.0 0.00 0.00 0.00 95 1012.3
20260506150036 46 200 0.0 0.0 0.00 0.00 0.00 96 1012.7
20260506144535 45 200 0.0 0.0 0.00 0.00 0.00 96 1012.8
20260506143034 44 200 0.0 0.0 0.00 0.00 0.00 96 1012.9
20260506141534 43 200 0.0 0.0 0.00 0.00 0.00 95 1012.7
20260506140034 43 200 0.0 0.0 0.00 0.00 0.00 95 1012.6
20260506134531 43 200 0.0 0.0 0.00 0.00 0.00 95 1012.7
20260506133030 43 200 0.0 0.0 0.00 0.00 0.00 95 1012.7
20260506131535 43 200 0.0 0.0 0.00 0.00 0.00 94 1012.6
20260506130028 43 200 0.0 0.0 0.00 0.00 0.00 94 1012.6
20260506124527 43 200 0.0 0.0 0.00 0.00 0.00 94 1012.5
20260506123026 43 200 0.0 0.0 0.00 0.00 0.00 94 1012.5
20260506121524 44 200 0.0 0.0 0.00 0.00 0.00 93 1012.3
20260506120023 44 200 0.0 0.0 0.00 0.00 0.00 92 1012.3
20260506114524 44 200 0.0 0.0 0.00 0.00 0.00 92 1012.2
20260506113020 45 200 0.0 0.0 0.00 0.00 0.00 92 1012.2
20260506111526 45 200 0.0 0.0 0.00 0.00 0.00 93 1012.1
20260506110016 45 200 0.0 0.0 0.00 0.00 0.00 91 1012.0
20260506104515 45 200 0.0 0.0 0.00 0.00 0.00 91 1011.9
20260506103011 46 200 0.0 0.0 0.00 0.00 0.00 91 1011.7
20260506101510 46 200 0.0 0.0 0.00 0.00 0.00 91 1011.7
20260506100008 47 200 0.0 0.0 0.00 0.00 0.00 90 1011.5
20260506094507 47 200 0.0 0.0 0.00 0.00 0.00 90 1011.5
20260506093004 48 200 0.0 0.0 0.00 0.00 0.00 89 1011.5
20260506091505 48 200 0.0 0.0 0.00 0.00 0.00 89 1011.5
20260506090000 48 200 0.0 0.0 0.00 0.00 0.00 88 1011.4
20260506084634 49 200 0.0 0.0 0.00 0.00 0.00 87 1011.4
20260506083059 49 200 0.0 0.0 0.00 0.00 0.00 87 1011.4
20260506081609 50 200 0.0 0.0 0.00 0.00 0.00 86 1011.4
20260506073047 51 200 0.0 0.0 0.00 0.00 0.00 84 1010.9
20260506071544 52 200 0.0 0.0 0.00 0.00 0.00 83 1010.8
20260506061543 55 200 0.0 0.0 0.00 0.00 0.00 78 1010.3
20260506050103 60 200 0.0 0.0 0.00 0.00 0.00 71 1009.8
20260506044542 61 200 0.0 0.0 0.00 0.00 0.00 69 1009.7
20260506043036 62 200 0.0 0.0 0.00 0.00 0.00 66 1009.4
20260506041551 63 200 0.0 0.0 0.00 0.00 0.00 63 1009.2
20260506040038 65 200 0.0 0.0 0.00 0.00 0.00 61 1009.1
20260506034548 67 200 0.0 0.0 0.00 0.00 0.00 57 1008.9
20260506033036 69 200 0.0 0.9 0.00 0.00 0.00 54 1008.7
20260506031535 70 202 0.0 3.5 0.00 0.00 0.00 49 1008.4
20260506030037 71 286 0.0 0.9 0.00 0.00 0.00 48 1008.3
20260506024535 72 209 0.0 1.7 0.00 0.00 0.00 46 1008.1
20260506023033 73 219 0.0 3.5 0.00 0.00 0.00 43 1008.0
20260506021533 74 290 0.0 1.7 0.00 0.00 0.00 41 1007.8
20260506020032 75 262 0.0 2.6 0.00 0.00 0.00 40 1007.8
20260506014532 76 187 0.0 4.3 0.00 0.00 0.00 38 1007.6
20260506013046 77 339 0.0 3.5 0.00 0.00 0.00 37 1007.6
20260506011531 78 200 0.0 2.6 0.00 0.00 0.00 34 1007.5
20260506010033 79 265 0.0 2.6 0.00 0.00 0.00 32 1007.4
20260506004529 79 198 0.0 2.6 0.00 0.00 0.00 32 1007.5
20260506003029 80 263 0.0 5.2 0.00 0.00 0.00 32 1007.4
20260506001528 81 210 0.0 3.5 0.00 0.00 0.00 31 1007.5
20260506000027 81 198 0.0 2.6 0.00 0.00 0.00 30 1007.5
20260505234527 81 201 0.0 6.1 0.00 0.00 0.00 30 1007.6
20260505233028 82 155 0.0 3.5 0.00 0.00 0.00 31 1007.6
20260505231528 83 161 0.0 9.6 0.00 0.00 0.00 29 1007.6
20260505230025 83 294 0.0 3.5 0.00 0.00 0.00 28 1007.4
20260505224524 82 213 0.0 4.3 0.00 0.00 0.00 27 1007.6
20260505223022 83 134 0.0 7.0 0.00 0.00 0.00 29 1007.6
20260505221522 83 200 0.9 4.3 0.00 0.00 0.00 27 1007.7
20260505220031 83 182 0.0 4.3 0.00 0.00 0.00 28 1007.7
20260505214522 82 213 0.0 3.5 0.00 0.00 0.00 26 1007.9
20260505213017 81 90 0.0 3.5 0.00 0.00 0.00 32 1007.9
20260505211516 81 201 0.0 4.3 0.00 0.00 0.00 28 1008.0
20260505210015 82 193 0.0 2.6 0.00 0.00 0.00 27 1008.1